Weather History for La Grange, GA

Change the Weather History Date:

Friday, March 1, 2013

  Actual Average Record
Temperature  
Mean Temperature 42 °F -  
Max Temperature 50 °F 64 °F 79 °F (1972)
Min Temperature 36 °F 38 °F 19 °F (2002)
Degree Days  
Heating Degree Days 23    
Moisture  
Dew Point 28 °F    
Average Humidity 59    
Maximum Humidity 75    
Minimum Humidity 44    
Precipitation  
Precipitation 0.00 in - - ()
Sea Level Pressure  
Sea Level Pressure 30.01 in    
Wind  
Wind Speed 8 mph (NNW)    
Max Wind Speed 17 mph    
Max Gust Speed 24 mph    
Visibility 10 miles    
Events      
Averages and records for this station are not official NWS values.
T = Trace of Precipitation, MM = Missing Value Source: NWS Daily Summary

Daily Weather History Graph

Daily Weather History Graph

Search for Another Location

Airport:

Trip Planner

Search our weather history database for the weather conditions in past years. The results will help you decide how hot, cold, wet, or windy it might be!

Date:

Astronomy

Mar. 01, 2013 Rise Set
Actual Time 7:07 AM EST 6:37 PM EST
Civil Twilight 6:43 AM EST 7:02 PM EST
Nautical Twilight 6:14 AM EST 7:31 PM EST
Astronomical Twilight 5:45 AM EST 7:59 PM EST
Moon 10:52 PM EST (3/1) 9:09 AM EST (3/1)
Length of Visible Light 12h 19m
Length of Day
11h 29m
Waning Gibbous, 83% of the Moon is Illuminated
Mar 1
Waning Gibbous
Mar 4
Last Quarter
Mar 11
New
Mar 19
First Quarter
Mar 27
Full

Hourly Weather History & Observations

Time (EST) Temp. Windchill Dew Point Humidity Pressure Visibility Wind Dir Wind Speed Gust Speed Precip Events Conditions
12:15 AM 39.2 °F 35.0 °F 27.3 °F 62% 30.01 in 10.0 mi NNW 5.8 mph - N/A   Overcast
12:35 AM 39.2 °F 33.6 °F 27.3 °F 62% 30.01 in 10.0 mi NNW 8.1 mph - N/A   Overcast
12:55 AM 38.8 °F 33.8 °F 27.5 °F 64% 30.01 in 10.0 mi North 6.9 mph - N/A   Overcast
1:15 AM 38.8 °F 34.6 °F 27.5 °F 64% 30.01 in 10.0 mi NNW 5.8 mph - N/A   Overcast
1:35 AM 38.8 °F 33.8 °F 27.9 °F 65% 30.01 in 10.0 mi NNW 6.9 mph - N/A   Overcast
1:55 AM 38.7 °F 33.6 °F 27.3 °F 64% 30.01 in 10.0 mi NNW 6.9 mph - N/A   Overcast
2:15 AM 38.5 °F 33.4 °F 27.1 °F 64% 30.01 in 10.0 mi North 6.9 mph - N/A   Overcast
2:35 AM 38.5 °F 34.1 °F 27.5 °F 65% 30.01 in 10.0 mi NNW 5.8 mph - N/A   Overcast
2:55 AM 39.2 °F 33.6 °F 28.4 °F 65% 30.01 in 10.0 mi NW 8.1 mph - N/A   Overcast
3:15 AM 38.3 °F 33.9 °F 27.1 °F 64% 30.01 in 10.0 mi NNW 5.8 mph - N/A   Overcast
3:35 AM 38.3 °F 32.5 °F 27.0 °F 64% 30.00 in 10.0 mi NNW 8.1 mph - N/A   Overcast
3:55 AM 37.9 °F 33.5 °F 26.6 °F 64% 30.00 in 10.0 mi NNW 5.8 mph - N/A   Overcast
4:15 AM 37.8 °F 31.8 °F 26.4 °F 64% 30.01 in 10.0 mi NNW 8.1 mph - N/A   Overcast
4:35 AM 37.6 °F 33.1 °F 26.4 °F 64% 30.01 in 10.0 mi NNW 5.8 mph - N/A   Overcast
4:55 AM 37.4 °F 32.1 °F 26.6 °F 65% 30.01 in 10.0 mi NNW 6.9 mph - N/A   Overcast
5:15 AM 37.4 °F 31.4 °F 26.6 °F 65% 30.01 in 10.0 mi NNW 8.1 mph - N/A   Overcast
5:35 AM 37.4 °F 33.8 °F 26.4 °F 65% 30.00 in 10.0 mi NNW 4.6 mph 9.2 mph N/A   Overcast
5:55 AM 37.4 °F 31.4 °F 26.1 °F 64% 30.01 in 10.0 mi NNW 8.1 mph - N/A   Overcast
6:15 AM 37.4 °F 32.8 °F 26.4 °F 65% 30.00 in 10.0 mi NNW 5.8 mph - N/A   Overcast
6:35 AM 37.0 °F 29.8 °F 26.1 °F 65% 30.00 in 10.0 mi NNW 10.4 mph 17.3 mph N/A   Overcast
6:55 AM 36.9 °F 30.7 °F 25.9 °F 64% 30.01 in 10.0 mi NNW 8.1 mph - N/A   Overcast
7:15 AM 37.2 °F 30.0 °F 26.4 °F 65% 30.01 in 10.0 mi NNW 10.4 mph 16.1 mph N/A   Overcast
7:35 AM 37.0 °F 32.4 °F 26.2 °F 65% 30.02 in 10.0 mi NW 5.8 mph - N/A   Overcast
7:55 AM 37.4 °F 32.1 °F 26.2 °F 64% 30.04 in 10.0 mi NNW 6.9 mph - N/A   Overcast
8:15 AM 37.8 °F 31.3 °F 26.2 °F 63% 30.04 in 10.0 mi NNW 9.2 mph - N/A   Overcast
8:35 AM 38.3 °F 32.5 °F 26.4 °F 62% 30.04 in 10.0 mi NW 8.1 mph - N/A   Overcast
8:55 AM 38.8 °F 32.6 °F 26.6 °F 61% 30.04 in 10.0 mi NNW 9.2 mph - N/A   Overcast
9:15 AM 38.8 °F 33.2 °F 26.2 °F 61% 30.05 in 10.0 mi NNW 8.1 mph - N/A   Overcast
9:35 AM 39.9 °F 33.9 °F 27.0 °F 60% 30.05 in 10.0 mi NW 9.2 mph - N/A   Overcast
9:55 AM 41.0 °F 33.5 °F 26.6 °F 57% 30.04 in 10.0 mi NW 13.8 mph - N/A   Overcast
10:15 AM 41.0 °F 34.3 °F 26.6 °F 57% 30.05 in 10.0 mi NW 11.5 mph 16.1 mph N/A   Overcast
10:35 AM 42.1 °F 35.2 °F 27.5 °F 56% 30.04 in 10.0 mi NW 12.7 mph 18.4 mph N/A   Overcast
10:55 AM 42.4 °F 36.1 °F 27.3 °F 55% 30.04 in 10.0 mi NW 11.5 mph - N/A   Overcast
11:15 AM 43.0 °F 37.2 °F 27.0 °F 53% 30.04 in 10.0 mi North 10.4 mph - N/A   Mostly Cloudy
11:35 AM 44.2 °F 38.4 °F 27.0 °F 51% 30.04 in 10.0 mi NW 11.5 mph 18.4 mph N/A   Mostly Cloudy
11:55 AM 46.0 °F 39.9 °F 28.2 °F 50% 30.02 in 10.0 mi WNW 13.8 mph - N/A   Mostly Cloudy
12:15 PM 45.7 °F 42.0 °F 27.0 °F 48% 30.02 in 10.0 mi North 6.9 mph - N/A   Overcast
12:35 PM 46.8 °F - 27.7 °F 47% 30.01 in 10.0 mi NW 11.5 mph 16.1 mph N/A   Mostly Cloudy
12:55 PM 46.6 °F - 27.3 °F 47% 30.00 in 10.0 mi NW 6.9 mph - N/A   Mostly Cloudy
1:15 PM 47.7 °F - 27.5 °F 46% 30.00 in 10.0 mi NNW 9.2 mph 16.1 mph N/A   Mostly Cloudy
1:35 PM 46.8 °F - 28.0 °F 48% 29.99 in 10.0 mi NW 10.4 mph 18.4 mph N/A   Mostly Cloudy
1:55 PM 46.8 °F - 28.4 °F 49% 29.99 in 10.0 mi NW 12.7 mph - N/A   Mostly Cloudy
2:15 PM 48.2 °F - 28.4 °F 46% 29.98 in 10.0 mi WNW 11.5 mph 20.7 mph N/A   Mostly Cloudy
2:35 PM 48.7 °F - 28.2 °F 45% 29.98 in 10.0 mi NW 16.1 mph 24.2 mph N/A   Mostly Cloudy
2:55 PM 47.5 °F - 27.3 °F 46% 29.97 in 10.0 mi NW 17.3 mph 21.9 mph N/A   Mostly Cloudy
3:15 PM 48.4 °F - 27.3 °F 44% 29.97 in 10.0 mi NW 16.1 mph 19.6 mph N/A   Scattered Clouds
3:35 PM 47.3 °F - 27.1 °F 46% 29.98 in 10.0 mi NNW 12.7 mph 21.9 mph N/A   Scattered Clouds
3:55 PM 47.3 °F - 28.6 °F 48% 29.98 in 10.0 mi North 8.1 mph 17.3 mph N/A   Mostly Cloudy
4:15 PM 46.2 °F 39.8 °F 27.5 °F 48% 29.98 in 10.0 mi NW 15.0 mph 19.6 mph N/A   Overcast
4:35 PM 45.7 °F 40.6 °F 27.9 °F 50% 29.98 in 10.0 mi NW 10.4 mph 16.1 mph N/A   Mostly Cloudy
4:55 PM 45.3 °F 40.1 °F 27.7 °F 50% 29.98 in 10.0 mi NW 10.4 mph 16.1 mph N/A   Overcast
5:15 PM 45.0 °F 41.2 °F 27.9 °F 51% 29.98 in 10.0 mi NNW 6.9 mph - N/A   Overcast
5:35 PM 44.6 °F 40.2 °F 28.2 °F 53% 29.98 in 10.0 mi NW 8.1 mph - N/A   Overcast
5:55 PM 44.6 °F 39.7 °F 28.4 °F 53% 29.98 in 10.0 mi NNW 9.2 mph - N/A   Overcast
6:15 PM 43.9 °F 40.5 °F 28.0 °F 54% 29.98 in 10.0 mi NNW 5.8 mph - N/A   Overcast
6:35 PM 43.7 °F 40.3 °F 28.0 °F 54% 29.99 in 10.0 mi North 5.8 mph - N/A   Overcast
6:55 PM 43.5 °F 39.4 °F 28.2 °F 55% 30.00 in 10.0 mi NNW 6.9 mph - N/A   Overcast
7:15 PM 43.2 °F 39.7 °F 28.2 °F 56% 30.00 in 10.0 mi NNW 5.8 mph - N/A   Overcast
7:35 PM 43.2 °F 39.7 °F 28.8 °F 57% 30.01 in 10.0 mi NNW 5.8 mph - N/A   Overcast
7:55 PM 42.8 °F 38.6 °F 29.1 °F 58% 30.01 in 10.0 mi NW 6.9 mph - N/A   Overcast
8:15 PM 42.8 °F 38.6 °F 29.5 °F 59% 30.02 in 10.0 mi NNW 6.9 mph - N/A   Overcast
8:35 PM 42.6 °F 37.2 °F 29.3 °F 59% 30.02 in 10.0 mi NNW 9.2 mph - N/A   Overcast
8:55 PM 42.1 °F 37.1 °F 29.8 °F 62% 30.02 in 10.0 mi NNW 8.1 mph - N/A   Overcast
9:15 PM 41.9 °F 38.2 °F 30.2 °F 63% 30.03 in 10.0 mi NNW 5.8 mph - N/A   Overcast
9:35 PM 41.4 °F 35.7 °F 30.2 °F 65% 30.03 in 10.0 mi NNW 9.2 mph - N/A   Overcast
9:55 PM 41.0 °F 33.9 °F 30.6 °F 66% 30.04 in 10.0 mi NW 12.7 mph - N/A   Overcast
10:15 PM 40.8 °F 34.1 °F 30.2 °F 66% 30.04 in 10.0 mi NW 11.5 mph - N/A   Overcast
10:35 PM 40.3 °F 34.4 °F 30.7 °F 69% 30.04 in 10.0 mi NNW 9.2 mph - N/A   Overcast
10:55 PM 40.3 °F 33.9 °F 30.2 °F 67% 30.03 in 10.0 mi NNW 10.4 mph - N/A   Overcast
11:15 PM 40.1 °F 34.7 °F 30.7 °F 69% 30.03 in 10.0 mi NNW 8.1 mph - N/A   Overcast
11:35 PM 39.7 °F 34.3 °F 30.9 °F 71% 30.03 in 10.0 mi NNW 8.1 mph - N/A   Overcast
11:55 PM 39.2 °F 33.6 °F 31.8 °F 75% 30.02 in 10.0 mi NW 8.1 mph - N/A   Overcast